Tracking 27380 objects as of 5-Jun-2023
HD Live streaming from Space Station
objects crossing your sky now

STARLINK-1446

Track STARLINK-1446 now!
10-day predictions
STARLINK-1446 is classified as:


NORAD ID: 45663
Int'l Code: 2020-035G
Perigee: 554.3 km
Apogee: 554.4 km
Inclination: 53.1 °
Period: 95.6 minutes
Semi major axis: 6925 km
RCS: Unknown
Launch date: June 4, 2020
Source: United States (US)
Launch site: AIR FORCE EASTERN TEST RANGE (AFETR)
Your satellite tracking list
Your tracking list is empty




NASA's NSSDC Master Catalog

Two Line Element Set (TLE):
1 45663U 20035G   23155.65697026  .00026410  00000-0  17857-2 0  9994
2 45663  53.0535 276.3458 0000104 339.3305  20.7680 15.06391130166648
Source of the keplerian elements: AFSPC